Year,Month,Day,Hour,Minute,Value (Times are PST for temperature in C)
2009,08,28,00,00,14.80
2009,08,28,00,01,14.80
2009,08,28,00,02,14.80
2009,08,28,00,03,14.80
2009,08,28,00,04,14.80
2009,08,28,00,05,14.80
2009,08,28,00,06,14.80
2009,08,28,00,07,14.70
2009,08,28,00,08,14.70
2009,08,28,00,09,14.70
2009,08,28,00,10,14.70
2009,08,28,00,11,14.70
2009,08,28,00,12,14.70
2009,08,28,00,13,14.70
2009,08,28,00,14,14.70
2009,08,28,00,15,14.60
2009,08,28,00,16,14.60
2009,08,28,00,17,14.60
2009,08,28,00,18,14.60
2009,08,28,00,19,14.60
2009,08,28,00,20,14.60
2009,08,28,00,21,14.50
2009,08,28,00,22,14.50
2009,08,28,00,23,14.50
2009,08,28,00,24,14.50
2009,08,28,00,25,14.50
2009,08,28,00,26,14.50
2009,08,28,00,27,14.40
2009,08,28,00,28,14.40
2009,08,28,00,29,14.40
2009,08,28,00,30,14.40
2009,08,28,00,31,14.40
2009,08,28,00,32,14.40
2009,08,28,00,33,14.40
2009,08,28,00,34,14.40
2009,08,28,00,35,14.40
2009,08,28,00,36,14.40
2009,08,28,00,37,14.40
2009,08,28,00,38,14.40
2009,08,28,00,39,14.40
2009,08,28,00,40,14.40
2009,08,28,00,41,14.40
2009,08,28,00,42,14.40
2009,08,28,00,43,14.40
2009,08,28,00,44,14.40
2009,08,28,00,45,14.40
2009,08,28,00,46,14.50
2009,08,28,00,47,14.50
2009,08,28,00,48,14.50
2009,08,28,00,49,14.50
2009,08,28,00,50,14.50
2009,08,28,00,51,14.50
2009,08,28,00,52,14.50
2009,08,28,00,53,14.50
2009,08,28,00,54,14.50
2009,08,28,00,55,14.50
2009,08,28,00,56,14.50
2009,08,28,00,57,14.40
2009,08,28,00,58,14.40
2009,08,28,00,59,14.40
2009,08,28,01,00,14.40
2009,08,28,01,01,14.30
2009,08,28,01,02,14.30
2009,08,28,01,03,14.30
2009,08,28,01,04,14.30
2009,08,28,01,05,14.20
2009,08,28,01,06,14.20
2009,08,28,01,07,14.10
2009,08,28,01,08,14.10
2009,08,28,01,09,14.10
2009,08,28,01,10,14.00
2009,08,28,01,11,14.00
2009,08,28,01,12,13.90
2009,08,28,01,13,13.90
2009,08,28,01,14,13.90
2009,08,28,01,15,13.80
2009,08,28,01,16,13.80
2009,08,28,01,17,13.80
2009,08,28,01,18,13.80
2009,08,28,01,19,13.70
2009,08,28,01,20,13.70
2009,08,28,01,21,13.70
2009,08,28,01,22,13.70
2009,08,28,01,23,13.60
2009,08,28,01,24,13.60
2009,08,28,01,25,13.60
2009,08,28,01,26,13.60
2009,08,28,01,27,13.50
2009,08,28,01,28,13.50
2009,08,28,01,29,13.50
2009,08,28,01,30,13.50
2009,08,28,01,31,13.40
2009,08,28,01,32,13.40
2009,08,28,01,33,13.40
2009,08,28,01,34,13.40
2009,08,28,01,35,13.40
2009,08,28,01,36,13.40
2009,08,28,01,37,13.40
2009,08,28,01,38,13.40
2009,08,28,01,39,13.30
2009,08,28,01,40,13.30
2009,08,28,01,41,13.30
2009,08,28,01,42,13.30
2009,08,28,01,43,13.30
2009,08,28,01,44,13.20
2009,08,28,01,45,13.20
2009,08,28,01,46,13.20
2009,08,28,01,47,13.20
2009,08,28,01,48,13.20
2009,08,28,01,49,13.20
2009,08,28,01,50,13.20
2009,08,28,01,51,13.20
2009,08,28,01,52,13.20
2009,08,28,01,53,13.20
2009,08,28,01,54,13.10
2009,08,28,01,55,13.10
2009,08,28,01,56,13.10
2009,08,28,01,57,13.10
2009,08,28,01,58,13.10
2009,08,28,01,59,13.00
2009,08,28,02,00,13.00
2009,08,28,02,01,13.00
2009,08,28,02,02,13.00
2009,08,28,02,03,13.00
2009,08,28,02,04,13.00
2009,08,28,02,05,13.00
2009,08,28,02,06,13.00
2009,08,28,02,07,13.00
2009,08,28,02,08,12.90
2009,08,28,02,09,12.90
2009,08,28,02,10,12.90
2009,08,28,02,11,12.90
2009,08,28,02,12,12.90
2009,08,28,02,13,12.90
2009,08,28,02,14,12.90
2009,08,28,02,15,12.90
2009,08,28,02,16,12.90
2009,08,28,02,17,12.80
2009,08,28,02,18,12.80
2009,08,28,02,19,12.80
2009,08,28,02,20,12.80
2009,08,28,02,21,12.80
2009,08,28,02,22,12.80
2009,08,28,02,23,12.80
2009,08,28,02,24,12.80
2009,08,28,02,25,12.80
2009,08,28,02,26,12.90
2009,08,28,02,27,12.90
2009,08,28,02,28,12.90
2009,08,28,02,29,12.90
2009,08,28,02,30,12.90
2009,08,28,02,31,12.80
2009,08,28,02,32,12.80
2009,08,28,02,33,12.80
2009,08,28,02,34,12.80
2009,08,28,02,35,12.80
2009,08,28,02,36,12.80
2009,08,28,02,37,12.80
2009,08,28,02,38,12.80
2009,08,28,02,39,12.80
2009,08,28,02,40,12.80
2009,08,28,02,41,12.80
2009,08,28,02,42,12.80
2009,08,28,02,43,12.80
2009,08,28,02,44,12.80
2009,08,28,02,45,12.80
2009,08,28,02,46,12.80
2009,08,28,02,47,12.80
2009,08,28,02,48,12.80
2009,08,28,02,49,12.70
2009,08,28,02,50,12.70
2009,08,28,02,51,12.70
2009,08,28,02,52,12.70
2009,08,28,02,53,12.70
2009,08,28,02,54,12.70
2009,08,28,02,55,12.70
2009,08,28,02,56,12.70
2009,08,28,02,57,12.60
2009,08,28,02,58,12.60
2009,08,28,02,59,12.60
2009,08,28,03,00,12.60
2009,08,28,03,01,12.60
2009,08,28,03,02,12.60
2009,08,28,03,03,12.60
2009,08,28,03,04,12.60
2009,08,28,03,05,12.60
2009,08,28,03,06,12.50
2009,08,28,03,07,12.50
2009,08,28,03,08,12.50
2009,08,28,03,09,12.50
2009,08,28,03,10,12.50
2009,08,28,03,11,12.50
2009,08,28,03,12,12.50
2009,08,28,03,13,12.50
2009,08,28,03,14,12.50
2009,08,28,03,15,12.50
2009,08,28,03,16,12.50
2009,08,28,03,17,12.50
2009,08,28,03,18,12.50
2009,08,28,03,19,12.50
2009,08,28,03,20,12.60
2009,08,28,03,21,12.60
2009,08,28,03,22,12.60
2009,08,28,03,23,12.60
2009,08,28,03,24,12.50
2009,08,28,03,25,12.50
2009,08,28,03,26,12.50
2009,08,28,03,27,12.40
2009,08,28,03,28,12.40
2009,08,28,03,29,12.40
2009,08,28,03,30,12.40
2009,08,28,03,31,12.30
2009,08,28,03,32,12.30
2009,08,28,03,33,12.30
2009,08,28,03,34,12.30
2009,08,28,03,35,12.30
2009,08,28,03,36,12.20
2009,08,28,03,37,12.20
2009,08,28,03,38,12.20
2009,08,28,03,39,12.20
2009,08,28,03,40,12.20
2009,08,28,03,41,12.10
2009,08,28,03,42,12.10
2009,08,28,03,43,12.10
2009,08,28,03,44,12.10
2009,08,28,03,45,12.10
2009,08,28,03,46,12.10
2009,08,28,03,47,12.00
2009,08,28,03,48,12.00
2009,08,28,03,49,12.00
2009,08,28,03,50,12.00
2009,08,28,03,51,11.90
2009,08,28,03,52,11.90
2009,08,28,03,53,11.90
2009,08,28,03,54,11.90
2009,08,28,03,55,11.90
2009,08,28,03,56,11.90
2009,08,28,03,57,11.90
2009,08,28,03,58,11.90
2009,08,28,03,59,11.90
2009,08,28,04,00,11.90
2009,08,28,04,01,11.90
2009,08,28,04,02,12.00
2009,08,28,04,03,12.00
2009,08,28,04,04,12.10
2009,08,28,04,05,12.10
2009,08,28,04,06,12.10
2009,08,28,04,07,12.10
2009,08,28,04,08,12.10
2009,08,28,04,09,12.10
2009,08,28,04,10,12.10
2009,08,28,04,11,12.20
2009,08,28,04,12,12.20
2009,08,28,04,13,12.20
2009,08,28,04,14,12.20
2009,08,28,04,15,12.20
2009,08,28,04,16,12.20
2009,08,28,04,17,12.10
2009,08,28,04,18,12.10
2009,08,28,04,19,12.10
2009,08,28,04,20,12.00
2009,08,28,04,21,12.00
2009,08,28,04,22,11.90
2009,08,28,04,23,11.90
2009,08,28,04,24,11.90
2009,08,28,04,25,11.90
2009,08,28,04,26,11.80
2009,08,28,04,27,11.80
2009,08,28,04,28,11.80
2009,08,28,04,29,11.80
2009,08,28,04,30,11.80
2009,08,28,04,31,11.70
2009,08,28,04,32,11.70
2009,08,28,04,33,11.70
2009,08,28,04,34,11.70
2009,08,28,04,35,11.70
2009,08,28,04,36,11.70
2009,08,28,04,37,11.70
2009,08,28,04,38,11.60
2009,08,28,04,39,11.60
2009,08,28,04,40,11.60
2009,08,28,04,41,11.60
2009,08,28,04,42,11.60
2009,08,28,04,43,11.60
2009,08,28,04,44,11.60
2009,08,28,04,45,11.60
2009,08,28,04,46,11.60
2009,08,28,04,47,11.60
2009,08,28,04,48,11.60
2009,08,28,04,49,11.60
2009,08,28,04,50,11.60
2009,08,28,04,51,11.60
2009,08,28,04,52,11.60
2009,08,28,04,53,11.50
2009,08,28,04,54,11.50
2009,08,28,04,55,11.50
2009,08,28,04,56,11.50
2009,08,28,04,57,11.50
2009,08,28,04,58,11.50
2009,08,28,04,59,11.40
2009,08,28,05,00,11.40
2009,08,28,05,01,11.40
2009,08,28,05,02,11.40
2009,08,28,05,03,11.40
2009,08,28,05,04,11.40
2009,08,28,05,05,11.40
2009,08,28,05,06,11.40
2009,08,28,05,07,11.40
2009,08,28,05,08,11.40
2009,08,28,05,09,11.40
2009,08,28,05,10,11.40
2009,08,28,05,11,11.40
2009,08,28,05,12,11.40
2009,08,28,05,13,11.40
2009,08,28,05,14,11.50
2009,08,28,05,15,11.50
2009,08,28,05,16,11.50
2009,08,28,05,17,11.50
2009,08,28,05,18,11.50
2009,08,28,05,19,11.50
2009,08,28,05,20,11.50
2009,08,28,05,21,11.50
2009,08,28,05,22,11.40
2009,08,28,05,23,11.40
2009,08,28,05,24,11.40
2009,08,28,05,25,11.40
2009,08,28,05,26,11.40
2009,08,28,05,27,11.40
2009,08,28,05,28,11.40
2009,08,28,05,29,11.30
2009,08,28,05,30,11.30
2009,08,28,05,31,11.30
2009,08,28,05,32,11.30
2009,08,28,05,33,11.30
2009,08,28,05,34,11.30
2009,08,28,05,35,11.30
2009,08,28,05,36,11.30
2009,08,28,05,37,11.20
2009,08,28,05,38,11.20
2009,08,28,05,39,11.20
2009,08,28,05,40,11.20
2009,08,28,05,41,11.20
2009,08,28,05,42,11.20
2009,08,28,05,43,11.20
2009,08,28,05,44,11.20
2009,08,28,05,45,11.20
2009,08,28,05,46,11.20
2009,08,28,05,47,11.20
2009,08,28,05,48,11.20
2009,08,28,05,49,11.20
2009,08,28,05,50,11.20
2009,08,28,05,51,11.20
2009,08,28,05,52,11.20
2009,08,28,05,53,11.20
2009,08,28,05,54,11.20
2009,08,28,05,55,11.10
2009,08,28,05,56,11.10
2009,08,28,05,57,11.10
2009,08,28,05,58,11.10
2009,08,28,05,59,11.10
2009,08,28,06,00,11.10
2009,08,28,06,01,11.10
2009,08,28,06,02,11.10
2009,08,28,06,03,11.10
2009,08,28,06,04,11.20
2009,08,28,06,05,11.20
2009,08,28,06,06,11.20
2009,08,28,06,07,11.20
2009,08,28,06,08,11.20
2009,08,28,06,09,11.20
2009,08,28,06,10,11.20
2009,08,28,06,11,11.20
2009,08,28,06,12,11.20
2009,08,28,06,13,11.20
2009,08,28,06,14,11.20
2009,08,28,06,15,11.20
2009,08,28,06,16,11.20
2009,08,28,06,17,11.30
2009,08,28,06,18,11.30
2009,08,28,06,19,11.30
2009,08,28,06,20,11.30
2009,08,28,06,21,11.30
2009,08,28,06,22,11.30
2009,08,28,06,23,11.30
2009,08,28,06,24,11.30
2009,08,28,06,25,11.40
2009,08,28,06,26,11.40
2009,08,28,06,27,11.40
2009,08,28,06,28,11.50
2009,08,28,06,29,11.50
2009,08,28,06,30,11.50
2009,08,28,06,31,11.60
2009,08,28,06,32,11.60
2009,08,28,06,33,11.60
2009,08,28,06,34,11.70
2009,08,28,06,35,11.70
2009,08,28,06,36,11.70
2009,08,28,06,37,11.70
2009,08,28,06,38,11.80
2009,08,28,06,39,11.80
2009,08,28,06,40,11.80
2009,08,28,06,41,11.80
2009,08,28,06,42,11.80
2009,08,28,06,43,11.80
2009,08,28,06,44,11.90
2009,08,28,06,45,11.90
2009,08,28,06,46,11.90
2009,08,28,06,47,11.90
2009,08,28,06,48,11.90
2009,08,28,06,49,11.90
2009,08,28,06,50,11.90
2009,08,28,06,51,11.90
2009,08,28,06,52,11.90
2009,08,28,06,53,11.90
2009,08,28,06,54,11.90
2009,08,28,06,55,11.90
2009,08,28,06,56,11.90
2009,08,28,06,57,11.90
2009,08,28,06,58,11.90
2009,08,28,06,59,11.90
2009,08,28,07,00,11.90
2009,08,28,07,01,11.90
2009,08,28,07,02,11.90
2009,08,28,07,03,11.90
2009,08,28,07,04,12.00
2009,08,28,07,05,12.00
2009,08,28,07,06,12.00
2009,08,28,07,07,12.00
2009,08,28,07,08,12.10
2009,08,28,07,09,12.10
2009,08,28,07,10,12.10
2009,08,28,07,11,12.20
2009,08,28,07,12,12.20
2009,08,28,07,13,12.20
2009,08,28,07,14,12.30
2009,08,28,07,15,12.30
2009,08,28,07,16,12.30
2009,08,28,07,17,12.40
2009,08,28,07,18,12.40
2009,08,28,07,19,12.40
2009,08,28,07,20,12.50
2009,08,28,07,21,12.50
2009,08,28,07,22,12.60
2009,08,28,07,23,12.60
2009,08,28,07,24,12.70
2009,08,28,07,25,12.70
2009,08,28,07,26,12.70
2009,08,28,07,27,12.80
2009,08,28,07,28,12.80
2009,08,28,07,29,12.90
2009,08,28,07,30,12.90
2009,08,28,07,31,13.00
2009,08,28,07,32,13.10
2009,08,28,07,33,13.10
2009,08,28,07,34,13.10
2009,08,28,07,35,13.10
2009,08,28,07,36,13.20
2009,08,28,07,37,13.20
2009,08,28,07,38,13.20
2009,08,28,07,39,13.20
2009,08,28,07,40,13.20
2009,08,28,07,41,13.20
2009,08,28,07,42,13.20
2009,08,28,07,43,13.30
2009,08,28,07,44,13.30
2009,08,28,07,45,13.30
2009,08,28,07,46,13.30
2009,08,28,07,47,13.30
2009,08,28,07,48,13.40
2009,08,28,07,49,13.40
2009,08,28,07,50,13.40
2009,08,28,07,51,13.40
2009,08,28,07,52,13.40
2009,08,28,07,53,13.40
2009,08,28,07,54,13.40
2009,08,28,07,55,13.50
2009,08,28,07,56,13.50
2009,08,28,07,57,13.50
2009,08,28,07,58,13.60
2009,08,28,07,59,13.60
2009,08,28,08,00,13.60
2009,08,28,08,01,13.60
2009,08,28,08,02,13.70
2009,08,28,08,03,13.70
2009,08,28,08,04,13.70
2009,08,28,08,05,13.80
2009,08,28,08,06,13.80
2009,08,28,08,07,13.90
2009,08,28,08,08,14.00
2009,08,28,08,09,14.10
2009,08,28,08,10,14.10
2009,08,28,08,11,14.10
2009,08,28,08,12,14.10
2009,08,28,08,13,14.10
2009,08,28,08,14,14.10
2009,08,28,08,15,14.10
2009,08,28,08,16,14.10
2009,08,28,08,17,14.10
2009,08,28,08,18,14.10
2009,08,28,08,19,14.20
2009,08,28,08,20,14.20
2009,08,28,08,21,14.20
2009,08,28,08,22,14.20
2009,08,28,08,23,14.20
2009,08,28,08,24,14.30
2009,08,28,08,25,14.30
2009,08,28,08,26,14.40
2009,08,28,08,27,14.50
2009,08,28,08,28,14.60
2009,08,28,08,29,14.80
2009,08,28,08,30,15.00
2009,08,28,08,31,15.00
2009,08,28,08,32,15.00
2009,08,28,08,33,15.20
2009,08,28,08,34,15.30
2009,08,28,08,35,15.40
2009,08,28,08,36,15.50
2009,08,28,08,37,15.60
2009,08,28,08,38,15.70
2009,08,28,08,39,15.70
2009,08,28,08,40,15.70
2009,08,28,08,41,15.80
2009,08,28,08,42,15.80
2009,08,28,08,43,15.80
2009,08,28,08,44,15.90
2009,08,28,08,45,16.00
2009,08,28,08,46,16.10
2009,08,28,08,47,16.20
2009,08,28,08,48,16.30
2009,08,28,08,49,16.40
2009,08,28,08,50,16.50
2009,08,28,08,51,16.70
2009,08,28,08,52,16.80
2009,08,28,08,53,17.00
2009,08,28,08,54,17.10
2009,08,28,08,55,17.20
2009,08,28,08,56,17.30
2009,08,28,08,57,17.40
2009,08,28,08,58,17.40
2009,08,28,08,59,17.50
2009,08,28,09,00,17.60
2009,08,28,09,01,17.60
2009,08,28,09,02,17.50
2009,08,28,09,03,17.60
2009,08,28,09,04,17.60
2009,08,28,09,05,17.60
2009,08,28,09,06,17.60
2009,08,28,09,07,17.60
2009,08,28,09,08,17.60
2009,08,28,09,09,17.70
2009,08,28,09,10,17.70
2009,08,28,09,11,17.70
2009,08,28,09,12,17.70
2009,08,28,09,13,17.70
2009,08,28,09,14,17.70
2009,08,28,09,15,17.70
2009,08,28,09,16,17.70
2009,08,28,09,17,17.80
2009,08,28,09,18,17.80
2009,08,28,09,19,17.80
2009,08,28,09,20,17.90
2009,08,28,09,21,17.90
2009,08,28,09,22,18.00
2009,08,28,09,23,18.00
2009,08,28,09,24,18.00
2009,08,28,09,25,18.00
2009,08,28,09,26,18.00
2009,08,28,09,27,18.00
2009,08,28,09,28,18.00
2009,08,28,09,29,18.10
2009,08,28,09,30,18.10
2009,08,28,09,31,18.10
2009,08,28,09,32,18.20
2009,08,28,09,33,18.30
2009,08,28,09,34,18.40
2009,08,28,09,35,18.50
2009,08,28,09,36,18.60
2009,08,28,09,37,18.60
2009,08,28,09,38,18.70
2009,08,28,09,39,18.70
2009,08,28,09,40,18.80
2009,08,28,09,41,18.90
2009,08,28,09,42,19.00
2009,08,28,09,43,19.10
2009,08,28,09,44,19.20
2009,08,28,09,45,19.30
2009,08,28,09,46,19.30
2009,08,28,09,47,19.40
2009,08,28,09,48,19.40
2009,08,28,09,49,19.50
2009,08,28,09,50,19.50
2009,08,28,09,51,19.50
2009,08,28,09,52,19.50
2009,08,28,09,53,19.60
2009,08,28,09,54,19.60
2009,08,28,09,55,19.60
2009,08,28,09,56,19.60
2009,08,28,09,57,19.60
2009,08,28,09,58,19.70
2009,08,28,09,59,19.70
2009,08,28,10,00,19.70
2009,08,28,10,01,19.80
2009,08,28,10,02,19.80
2009,08,28,10,03,19.90
2009,08,28,10,04,19.90
2009,08,28,10,05,20.00
2009,08,28,10,06,20.10
2009,08,28,10,07,20.20
2009,08,28,10,08,20.30
2009,08,28,10,09,20.40
2009,08,28,10,10,20.50
2009,08,28,10,11,20.60
2009,08,28,10,12,20.70
2009,08,28,10,13,20.80
2009,08,28,10,14,20.90
2009,08,28,10,15,20.90
2009,08,28,10,16,20.90
2009,08,28,10,17,21.00
2009,08,28,10,18,21.00
2009,08,28,10,19,21.10
2009,08,28,10,20,21.10
2009,08,28,10,21,21.20
2009,08,28,10,22,21.20
2009,08,28,10,23,21.30
2009,08,28,10,24,21.40
2009,08,28,10,25,21.50
2009,08,28,10,26,21.50
2009,08,28,10,27,21.50
2009,08,28,10,28,21.40
2009,08,28,10,29,21.30
2009,08,28,10,30,21.20
2009,08,28,10,31,21.20
2009,08,28,10,32,21.20
2009,08,28,10,33,21.20
2009,08,28,10,34,21.30
2009,08,28,10,35,21.30
2009,08,28,10,36,21.40
2009,08,28,10,37,21.40
2009,08,28,10,38,21.50
2009,08,28,10,39,21.60
2009,08,28,10,40,21.60
2009,08,28,10,41,21.70
2009,08,28,10,42,21.80
2009,08,28,10,43,21.90
2009,08,28,10,44,22.00
2009,08,28,10,45,22.20
2009,08,28,10,46,22.40
2009,08,28,10,47,22.60
2009,08,28,10,48,22.80
2009,08,28,10,49,22.90
2009,08,28,10,50,23.10
2009,08,28,10,51,23.30
2009,08,28,10,52,23.40
2009,08,28,10,53,23.40
2009,08,28,10,54,23.50
2009,08,28,10,55,23.50
2009,08,28,10,56,23.60
2009,08,28,10,57,23.60
2009,08,28,10,58,23.70
2009,08,28,10,59,23.70
2009,08,28,11,00,23.70
2009,08,28,11,01,23.70
2009,08,28,11,02,23.70
2009,08,28,11,03,23.70
2009,08,28,11,04,23.80
2009,08,28,11,05,23.90
2009,08,28,11,06,24.00
2009,08,28,11,07,24.10
2009,08,28,11,08,24.10
2009,08,28,11,09,24.20
2009,08,28,11,10,24.20
2009,08,28,11,11,24.20
2009,08,28,11,12,24.10
2009,08,28,11,13,23.90
2009,08,28,11,14,23.90
2009,08,28,11,15,23.80
2009,08,28,11,16,23.80
2009,08,28,11,17,23.90
2009,08,28,11,18,23.90
2009,08,28,11,19,23.90
2009,08,28,11,20,23.90
2009,08,28,11,21,23.90
2009,08,28,11,22,23.90
2009,08,28,11,23,24.00
2009,08,28,11,24,24.00
2009,08,28,11,25,24.10
2009,08,28,11,26,24.20
2009,08,28,11,27,24.20
2009,08,28,11,28,24.10
2009,08,28,11,29,24.10
2009,08,28,11,30,24.00
2009,08,28,11,31,24.00
2009,08,28,11,32,23.90
2009,08,28,11,33,23.70
2009,08,28,11,34,23.60
2009,08,28,11,35,23.40
2009,08,28,11,36,23.30
2009,08,28,11,37,23.20
2009,08,28,11,38,23.00
2009,08,28,11,39,22.80
2009,08,28,11,40,22.70
2009,08,28,11,41,22.70
2009,08,28,11,42,22.60
2009,08,28,11,43,22.60
2009,08,28,11,44,22.50
2009,08,28,11,45,22.40
2009,08,28,11,46,22.30
2009,08,28,11,47,22.20
2009,08,28,11,48,22.20
2009,08,28,11,49,22.10
2009,08,28,11,50,22.00
2009,08,28,11,51,21.90
2009,08,28,11,52,21.80
2009,08,28,11,53,21.80
2009,08,28,11,54,21.80
2009,08,28,11,55,21.70
2009,08,28,11,56,21.70
2009,08,28,11,57,21.60
2009,08,28,11,58,21.40
2009,08,28,11,59,21.40
2009,08,28,12,00,21.30
2009,08,28,12,01,21.10
2009,08,28,12,02,20.90
2009,08,28,12,03,20.70
2009,08,28,12,04,20.60
2009,08,28,12,05,20.50
2009,08,28,12,06,20.40
2009,08,28,12,07,20.40
2009,08,28,12,08,20.30
2009,08,28,12,09,20.30
2009,08,28,12,10,20.20
2009,08,28,12,11,20.20
2009,08,28,12,12,20.20
2009,08,28,12,13,20.30
2009,08,28,12,14,20.30
2009,08,28,12,15,20.30
2009,08,28,12,16,20.30
2009,08,28,12,17,20.30
2009,08,28,12,18,20.30
2009,08,28,12,19,20.40
2009,08,28,12,20,20.50
2009,08,28,12,21,20.60
2009,08,28,12,22,20.70
2009,08,28,12,23,20.70
2009,08,28,12,24,20.70
2009,08,28,12,25,20.60
2009,08,28,12,26,20.60
2009,08,28,12,27,20.60
2009,08,28,12,28,20.50
2009,08,28,12,29,20.50
2009,08,28,12,30,20.40
2009,08,28,12,31,20.30
2009,08,28,12,32,20.30
2009,08,28,12,33,20.30
2009,08,28,12,34,20.30
2009,08,28,12,35,20.30
2009,08,28,12,36,20.40
2009,08,28,12,37,20.40
2009,08,28,12,38,20.40
2009,08,28,12,39,20.50
2009,08,28,12,40,20.60
2009,08,28,12,41,20.70
2009,08,28,12,42,20.80
2009,08,28,12,43,20.90
2009,08,28,12,44,21.00
2009,08,28,12,45,21.10
2009,08,28,12,46,21.20
2009,08,28,12,47,21.20
2009,08,28,12,48,21.30
2009,08,28,12,49,21.30
2009,08,28,12,50,21.40
2009,08,28,12,51,21.40
2009,08,28,12,52,21.50
2009,08,28,12,53,21.60
2009,08,28,12,54,21.70
2009,08,28,12,55,21.80
2009,08,28,12,56,21.90
2009,08,28,12,57,22.00
2009,08,28,12,58,22.10
2009,08,28,12,59,22.20
2009,08,28,13,00,22.30
2009,08,28,13,01,22.30
2009,08,28,13,02,22.40
2009,08,28,13,03,22.40
2009,08,28,13,04,22.40
2009,08,28,13,05,22.50
2009,08,28,13,06,22.60
2009,08,28,13,07,22.60
2009,08,28,13,08,22.70
2009,08,28,13,09,22.70
2009,08,28,13,10,22.80
2009,08,28,13,11,22.80
2009,08,28,13,12,22.90
2009,08,28,13,13,23.00
2009,08,28,13,14,23.00
2009,08,28,13,15,23.10
2009,08,28,13,16,23.20
2009,08,28,13,17,23.30
2009,08,28,13,18,23.40
2009,08,28,13,19,23.40
2009,08,28,13,20,23.50
2009,08,28,13,21,23.60
2009,08,28,13,22,23.60
2009,08,28,13,23,23.60
2009,08,28,13,24,23.60
2009,08,28,13,25,23.60
2009,08,28,13,26,23.70
2009,08,28,13,27,23.70
2009,08,28,13,28,23.70
2009,08,28,13,29,23.70
2009,08,28,13,30,23.70
2009,08,28,13,31,23.70
2009,08,28,13,32,23.80
2009,08,28,13,33,23.80
2009,08,28,13,34,23.90
2009,08,28,13,35,23.90
2009,08,28,13,36,24.00
2009,08,28,13,37,24.00
2009,08,28,13,38,24.00
2009,08,28,13,39,24.10
2009,08,28,13,40,24.10
2009,08,28,13,41,24.20
2009,08,28,13,42,24.30
2009,08,28,13,43,24.40
2009,08,28,13,44,24.40
2009,08,28,13,45,24.50
2009,08,28,13,46,24.50
2009,08,28,13,47,24.60
2009,08,28,13,48,24.60
2009,08,28,13,49,24.70
2009,08,28,13,50,24.70
2009,08,28,13,51,24.70
2009,08,28,13,52,24.70
2009,08,28,13,53,24.70
2009,08,28,13,54,24.70
2009,08,28,13,55,24.70
2009,08,28,13,56,24.70
2009,08,28,13,57,24.70
2009,08,28,13,58,24.70
2009,08,28,13,59,24.70
2009,08,28,14,00,24.60
2009,08,28,14,01,24.50
2009,08,28,14,02,24.40
2009,08,28,14,03,24.30
2009,08,28,14,04,24.20
2009,08,28,14,05,24.10
2009,08,28,14,06,23.90
2009,08,28,14,07,23.80
2009,08,28,14,08,23.70
2009,08,28,14,09,23.50
2009,08,28,14,10,23.40
2009,08,28,14,11,23.20
2009,08,28,14,12,23.00
2009,08,28,14,13,22.80
2009,08,28,14,14,22.70
2009,08,28,14,15,22.50
2009,08,28,14,16,22.40
2009,08,28,14,17,22.20
2009,08,28,14,18,22.10
2009,08,28,14,19,22.00
2009,08,28,14,20,21.90
2009,08,28,14,21,21.80
2009,08,28,14,22,21.70
2009,08,28,14,23,21.60
2009,08,28,14,24,21.50
2009,08,28,14,25,21.50
2009,08,28,14,26,21.40
2009,08,28,14,27,21.40
2009,08,28,14,28,21.30
2009,08,28,14,29,21.30
2009,08,28,14,30,21.30
2009,08,28,14,31,21.30
2009,08,28,14,32,21.30
2009,08,28,14,33,21.30
2009,08,28,14,34,21.00
2009,08,28,14,35,20.40
2009,08,28,14,36,20.00
2009,08,28,14,37,19.70
2009,08,28,14,38,19.40
2009,08,28,14,39,19.20
2009,08,28,14,40,19.00
2009,08,28,14,41,18.90
2009,08,28,14,42,18.80
2009,08,28,14,43,18.70
2009,08,28,14,44,18.70
2009,08,28,14,45,18.70
2009,08,28,14,46,18.60
2009,08,28,14,47,18.60
2009,08,28,14,48,18.60
2009,08,28,14,49,18.60
2009,08,28,14,50,18.60
2009,08,28,14,51,18.60
2009,08,28,14,52,18.60
2009,08,28,14,53,18.60
2009,08,28,14,54,18.70
2009,08,28,14,55,18.70
2009,08,28,14,56,18.60
2009,08,28,14,57,18.60
2009,08,28,14,58,18.50
2009,08,28,14,59,18.50
2009,08,28,15,00,18.40
2009,08,28,15,01,18.30
2009,08,28,15,02,18.10
2009,08,28,15,03,17.90
2009,08,28,15,04,17.80
2009,08,28,15,05,17.70
2009,08,28,15,06,17.70
2009,08,28,15,07,17.70
2009,08,28,15,08,17.60
2009,08,28,15,09,17.60
2009,08,28,15,10,17.60
2009,08,28,15,11,17.60
2009,08,28,15,12,17.70
2009,08,28,15,13,17.80
2009,08,28,15,14,17.90
2009,08,28,15,15,18.00
2009,08,28,15,16,18.10
2009,08,28,15,17,18.20
2009,08,28,15,18,18.30
2009,08,28,15,19,18.50
2009,08,28,15,20,18.50
2009,08,28,15,21,18.60
2009,08,28,15,22,18.70
2009,08,28,15,23,18.60
2009,08,28,15,24,18.50
2009,08,28,15,25,18.50
2009,08,28,15,26,18.50
2009,08,28,15,27,18.50
2009,08,28,15,28,18.50
2009,08,28,15,29,18.50
2009,08,28,15,30,18.60
2009,08,28,15,31,18.60
2009,08,28,15,32,18.60
2009,08,28,15,33,18.60
2009,08,28,15,34,18.60
2009,08,28,15,35,18.60
2009,08,28,15,36,18.60
2009,08,28,15,37,18.60
2009,08,28,15,38,18.60
2009,08,28,15,39,18.60
2009,08,28,15,40,18.70
2009,08,28,15,41,18.70
2009,08,28,15,42,18.80
2009,08,28,15,43,18.90
2009,08,28,15,44,18.90
2009,08,28,15,45,19.00
2009,08,28,15,46,19.10
2009,08,28,15,47,19.20
2009,08,28,15,48,19.20
2009,08,28,15,49,19.30
2009,08,28,15,50,19.40
2009,08,28,15,51,19.50
2009,08,28,15,52,19.60
2009,08,28,15,53,19.60
2009,08,28,15,54,19.70
2009,08,28,15,55,19.80
2009,08,28,15,56,19.90
2009,08,28,15,57,20.00
2009,08,28,15,58,20.00
2009,08,28,15,59,20.10
2009,08,28,16,00,20.20
2009,08,28,16,01,20.30
2009,08,28,16,02,20.40
2009,08,28,16,03,20.40
2009,08,28,16,04,20.50
2009,08,28,16,05,20.60
2009,08,28,16,06,20.70
2009,08,28,16,07,20.70
2009,08,28,16,08,20.80
2009,08,28,16,09,20.80
2009,08,28,16,10,20.80
2009,08,28,16,11,20.90
2009,08,28,16,12,20.90
2009,08,28,16,13,20.90
2009,08,28,16,14,20.90
2009,08,28,16,15,20.90
2009,08,28,16,16,21.00
2009,08,28,16,17,21.00
2009,08,28,16,18,21.00
2009,08,28,16,19,21.00
2009,08,28,16,20,21.00
2009,08,28,16,21,21.00
2009,08,28,16,22,20.90
2009,08,28,16,23,20.90
2009,08,28,16,24,20.90
2009,08,28,16,25,20.90
2009,08,28,16,26,20.90
2009,08,28,16,27,20.90
2009,08,28,16,28,20.80
2009,08,28,16,29,20.80
2009,08,28,16,30,20.70
2009,08,28,16,31,20.70
2009,08,28,16,32,20.60
2009,08,28,16,33,20.60
2009,08,28,16,34,20.60
2009,08,28,16,35,20.60
2009,08,28,16,36,20.60
2009,08,28,16,37,20.50
2009,08,28,16,38,20.50
2009,08,28,16,39,20.40
2009,08,28,16,40,20.40
2009,08,28,16,41,20.30
2009,08,28,16,42,20.30
2009,08,28,16,43,20.20
2009,08,28,16,44,20.00
2009,08,28,16,45,19.90
2009,08,28,16,46,19.80
2009,08,28,16,47,19.70
2009,08,28,16,48,19.60
2009,08,28,16,49,19.50
2009,08,28,16,50,19.50
2009,08,28,16,51,19.50
2009,08,28,16,52,19.50
2009,08,28,16,53,19.50
2009,08,28,16,54,19.40
2009,08,28,16,55,19.40
2009,08,28,16,56,19.40
2009,08,28,16,57,19.30
2009,08,28,16,58,19.30
2009,08,28,16,59,19.20
2009,08,28,17,00,19.20
2009,08,28,17,01,19.20
2009,08,28,17,02,19.20
2009,08,28,17,03,19.20
2009,08,28,17,04,19.20
2009,08,28,17,05,19.30
2009,08,28,17,06,19.30
2009,08,28,17,07,19.30
2009,08,28,17,08,19.40
2009,08,28,17,09,19.50
2009,08,28,17,10,19.60
2009,08,28,17,11,19.70
2009,08,28,17,12,19.70
2009,08,28,17,13,19.80
2009,08,28,17,14,19.90
2009,08,28,17,15,20.00
2009,08,28,17,16,20.00
2009,08,28,17,17,20.10
2009,08,28,17,18,20.10
2009,08,28,17,19,20.10